Location: Newark
(46.3567°N, 6.1428°E)
Time: 22:48:06
(UTC+00:00)

First-Move - Pass Details

Date: 24 September 2019
Orbit: 577 x 669 km, 97.6° (Epoch: 17 October)

Event Time Altitude Azimuth Distance (km) Brightness Sun altitude
Rises 17:54:49 0° 193° (SSW) 2,821 ? -5.1°
Reaches altitude 10° 17:57:14 10° 205° (SSW) 1,913 ? -5.5°
Maximum altitude 18:00:48 28° 265° (W) 1,112 ? -6.1°
Drops below altitude 10° 18:04:22 10° 325° (NW) 1,903 ? -6.8°
Sets 18:06:47 0° 337° (NNW) 2,805 ? -7.2°
